Location: Unspecified
(50.7693°N, 0.0000°E)
Time: 05:08:34
(UTC+00:00)

A-11 Canister half - Pass Details

Date: 20 June 2019
Orbit: 1526 x 1683 km, 47.3° (Epoch: 21 July)

Event Time Altitude Azimuth Distance (km) Brightness Sun altitude
Rises 11:45:00 0° 287° (WNW) 4,681 11.4 62.5°
Reaches altitude 10° 11:48:33 10° 277° (W) 3,698 11.1 62.5°
Maximum altitude 11:56:00 28° 223° (SW) 2,564 11.0 62.6°
Drops below altitude 10° 12:03:34 10° 169° (S) 3,742 11.6 62.7°
Sets 12:07:12 0° 158° (SSE) 4,746 11.9 62.6°
